Kirksville, MO

4:52 PM CST on November 24, 2017 (GMT -0600)
Kirksville Regional

Weather History for KIRK - October, 2011

Change the Weather History Date:

Friday, October 7, 2011

  Actual Average Record
Temperature  
Mean Temperature 72 °F 56 °F  
Max Temperature 85 °F 67 °F 95 °F (1939)
Min Temperature 58 °F 45 °F 25 °F (2000)
Degree Days  
Heating Degree Days 0 10  
Month to date heating degree days 38 61  
Since 1 July heating degree days 189 168  
Cooling Degree Days 7 1  
Month to date cooling degree days 8 7  
Year to date cooling degree days 1187 934  
Growing Degree Days 20 (Base 50)    
Moisture  
Dew Point 50 °F    
Average Humidity 55    
Maximum Humidity 80    
Minimum Humidity 30    
Precipitation  
Precipitation 0.00 in 0.10 in 1.70 in (1930)
Month to date precipitation 0.00 0.77  
Year to date precipitation 28.17 32.29  
Sea Level Pressure  
Sea Level Pressure 30.14 in    
Wind  
Wind Speed 13 mph (SSE)    
Max Wind Speed 24 mph    
Max Gust Speed 31 mph    
Visibility 10 miles    
Events      
T = Trace of Precipitation, MM = Missing Value Source: NWS Daily Summary

Daily Weather History Graph

Daily Weather History Graph

Search for Another Location

Airport or City:

Trip Planner

Search our weather history database for the weather conditions in past years. The results will help you decide how hot, cold, wet, or windy it might be!

Date:

Astronomy

Oct. 07, 2011 Rise Set
Actual Time 7:12 AM CDT 6:43 PM CDT
Civil Twilight 6:45 AM CDT 7:10 PM CDT
Nautical Twilight 6:13 AM CDT 7:41 PM CDT
Astronomical Twilight 5:42 AM CDT 8:13 PM CDT
Moon 4:26 PM CDT (10/7) 3:01 AM CDT (10/7)
Length of Visible Light 12h 25m
Length of Day
11h 30m
Waxing Gibbous, 83% of the Moon is Illuminated
Oct 7
Waxing Gibbous
Oct 11
Full
Oct 19
Last Quarter
Oct 26
New
Nov 2
First Quarter

Hourly Weather History & Observations

Time (CDT) Temp. Dew Point Humidity Pressure Visibility Wind Dir Wind Speed Gust Speed Precip Events Conditions
12:55 AM 62.1 °F 51.1 °F 67% 30.10 in 10.0 mi SSE 10.4 mph - N/A   Clear
1:55 AM 62.1 °F 51.1 °F 67% 30.10 in 10.0 mi SSE 10.4 mph - N/A   Clear
2:55 AM 61.0 °F 51.1 °F 70% 30.12 in 10.0 mi SSE 9.2 mph - N/A   Clear
3:55 AM 60.1 °F 51.1 °F 72% 30.13 in 10.0 mi SSE 9.2 mph - N/A   Clear
4:55 AM 59.0 °F 51.1 °F 75% 30.14 in 10.0 mi SSE 10.4 mph - N/A   Clear
5:55 AM 59.0 °F 51.8 °F 77% 30.16 in 10.0 mi SSE 10.4 mph - N/A   Clear
6:55 AM 57.2 °F 51.8 °F 82% 30.17 in 10.0 mi SSE 11.5 mph - N/A   Clear
7:55 AM 59.0 °F 51.1 °F 75% 30.18 in 10.0 mi SSE 12.7 mph - N/A   Clear
8:55 AM 64.9 °F 52.0 °F 63% 30.18 in 10.0 mi South 13.8 mph 20.7 mph N/A   Clear
9:55 AM 71.1 °F 53.1 °F 53% 30.19 in 10.0 mi South 16.1 mph 25.3 mph N/A   Clear
10:55 AM 78.1 °F 54.0 °F 43% 30.18 in 10.0 mi South 12.7 mph 20.7 mph N/A   Clear
11:55 AM 80.1 °F 52.0 °F 38% 30.17 in 10.0 mi South 20.7 mph 26.5 mph N/A   Clear
12:55 PM 82.0 °F 52.0 °F 35% 30.14 in 10.0 mi SSW 19.6 mph 27.6 mph N/A   Clear
1:55 PM 82.9 °F 52.0 °F 34% 30.13 in 10.0 mi South 18.4 mph 28.8 mph N/A   Clear
2:55 PM 84.2 °F 51.8 °F 33% 30.12 in 10.0 mi South 12.7 mph 27.6 mph N/A   Clear
3:55 PM 82.4 °F 48.2 °F 30% 30.11 in 10.0 mi SSE 20.7 mph 27.6 mph N/A   Clear
4:55 PM 82.0 °F 48.9 °F 31% 30.10 in 10.0 mi South 15.0 mph 24.2 mph N/A   Clear
5:55 PM 80.1 °F 46.0 °F 30% 30.10 in 10.0 mi South 12.7 mph 20.7 mph N/A   Clear
6:55 PM 73.0 °F 45.0 °F 37% 30.11 in 10.0 mi South 9.2 mph - N/A   Clear
7:55 PM 66.9 °F 46.0 °F 47% 30.12 in 10.0 mi SSE 10.4 mph - N/A   Clear
8:55 PM 69.8 °F 46.4 °F 43% 30.14 in 10.0 mi SSE 12.7 mph - N/A   Clear
9:55 PM 69.1 °F 48.0 °F 47% 30.15 in 10.0 mi SSE 12.7 mph - N/A   Clear
10:55 PM 66.0 °F 48.0 °F 52% 30.15 in 10.0 mi SSE 10.4 mph - N/A   Clear
11:55 PM 64.0 °F 48.9 °F 58% 30.15 in 10.0 mi SSE 9.2 mph - N/A   Clear